User: anonymous   Login
Location: Unspecified
(0.0000°N, 0.0000°E)
Time: 12:14:22
(UTC+00:00)
Language:

USA 264 DEB - Orbit

View from above orbital plane
View from above orbital plane
View from above satellite
View from above satellite

Ground track
Ground track

The orbit data is extracted from the following two-line orbital elements,

1 40981U 15058R   18315.75955293 0.00000000  00000-0  00000-0 0    07
2 40981  63.4339 296.7910 0030000 166.8797 193.1203 13.40767158    04
Epoch (UTC): 11 November 2018 18:13:45
Eccentricity: 0.0030000
inclination: 63.4339°
perigee height: 1084 km
apogee height: 1129 km
right ascension of ascending node: 296.7910°
argument of perigee: 166.8797°
revolutions per day: 13.40767158
mean anomaly at epoch: 193.1203°
orbit number at epoch: 0

The dashed part of the orbit path shows where the satellite is in the earth's shadow,  

DLR